This is the latest recevied weather packets stored in our database for station/object IN3XSV. If no packets are shown the sender has not sent any weather packets the latest 10 day(s).
| Time | Temp. | Humidity | Pressure | Rain* | Wind** | Luminosity | Snow |
|---|---|---|---|---|---|---|---|
| 1776944950 | 18.89° C | 38% | 1013.3 hPa | 0 mm | - | - | - |
| 1776944702 | 18.33° C | 38% | 1013.4 hPa | 0 mm | - | - | - |
| 1776944650 | 18.33° C | 38% | 1013.4 hPa | 0 mm | - | - | - |
| 1776944350 | 18.33° C | 37% | 1013.4 hPa | 0 mm | - | - | - |
| 1776944051 | 17.78° C | 39% | 1013.6 hPa | 0 mm | - | - | - |
| 1776943750 | 17.22° C | 39% | 1013.6 hPa | 0 mm | - | - | - |
| 1776943450 | 17.22° C | 38% | 1013.8 hPa | 0 mm | - | - | - |
| 1776943150 | 16.67° C | 39% | 1013.9 hPa | 0 mm | - | - | - |
| 1776942851 | 16.67° C | 41% | 1014 hPa | 0 mm | - | - | - |
| 1776942550 | 16.67° C | 40% | 1014 hPa | 0 mm | - | - | - |
| 1776942250 | 16.67° C | 44% | 1014 hPa | 0 mm | - | - | - |
| 1776941950 | 16.67° C | 44% | 1014.2 hPa | 0 mm | - | - | - |
| 1776941650 | 16.11° C | 45% | 1014.4 hPa | 0 mm | - | - | - |
| 1776941351 | 16.11° C | 44% | 1014.4 hPa | 0 mm | - | - | - |
| 1776941051 | 16.11° C | 47% | 1014.4 hPa | 0 mm | - | - | - |
| 1776940751 | 15.56° C | 46% | 1014.8 hPa | 0 mm | - | - | - |
| 1776940451 | 15.56° C | 45% | 1014.6 hPa | 0 mm | - | - | - |
| 1776940151 | 15.56° C | 45% | 1014.6 hPa | 0 mm | - | - | - |
| 1776939851 | 15° C | 48% | 1014.8 hPa | 0 mm | - | - | - |
| 1776939551 | 14.44° C | 46% | 1014.8 hPa | 0 mm | - | - | - |
| 1776939251 | 15° C | 48% | 1014.9 hPa | 0 mm | - | - | - |
| 1776938951 | 15° C | 50% | 1015 hPa | 0 mm | - | - | - |
| 1776938651 | 14.44° C | 49% | 1015.2 hPa | 0 mm | - | - | - |
| 1776938351 | 14.44° C | 50% | 1015.4 hPa | 0 mm | - | - | - |
| 1776938051 | 13.89° C | 53% | 1015.6 hPa | 0 mm | - | - | - |
* Rain latest hour (hover to see other rain measurements)
** Current wind speed in m/s (hover to see current wind gust speed)